Temp
-1 -0 -0 0 0 0 0 0 1 0 -0 1 2 2 4 4 4 4 4 4 4 4 4 3 3 4 4 5 6 6 5 4 5 5 5 5 6 6 6 6 6 6 6 6
-1 -1 -1 -1 -1 -0 -0 -0 -0 0 0 -1 1 3 3 3 4 4 3 3 2 2 3 2 2 2 2 2 2 3 4 4 4 4 5 5 5 6 6 6 6 6 6 6
-1 -1 -1 -1 -1 -1 -1 -1 -1 -2 -1 -0 -0 2 3 2 2 3 2 0 -0 0 1 1 1 1 0 0 0 0 1 1 4 4 4 4 5 5 6 6 6 6 6 6
-2 -2 -2 -1 -1 -2 -2 -2 -2 -3 -2 -3 -1 -4 0 2 1 -0 -1 -1 -1 -0 -0 0 1 1 -0 -0 0 1 1 2 2 3 3 3 4 5 5 5 5 5 5 6
-3 -3 -3 -3 -2 -3 -3 -2 -3 -3 -5 -5 -3 -4 0 -0 -1 -1 -1 -1 -1 -1 -1 -1 -1 -1 -0 -0 1 1 2 3 3 3 3 3 3 3 4 4 4 5 5 5
-4 -4 -4 -3 -3 -3 -3 -3 -3 -5 -6 -9 -4 -3 -1 -1 -1 -1 -1 -1 -1 -1 -1 -1 -1 -0 0 0 1 1 1 2 2 3 3 3 3 3 3 3 3 4 5 5
-3 -4 -4 -4 -3 -3 -4 -3 -5 -8 -7 -8 -3 -4 -1 -2 -1 -2 -3 -3 -3 -2 -2 -1 -0 -0 -1 -1 -0 -0 0 1 2 2 2 3 3 3 3 3 3 3 3 4
-5 -5 -4 -4 -4 -4 -4 -5 -5 -10 -9 -7 -3 -4 -1 -2 -3 -3 -3 -3 -3 -2 -2 -2 -1 -1 -1 -1 -1 -1 -0 0 1 1 2 2 3 3 3 3 3 2 3 3
-5 -5 -5 -5 -5 -5 -5 -4 -5 -5 -5 -5 -3 -1 -1 -2 -2 -2 -2 -1 -1 -2 -2 -2 -3 -2 -2 -1 -1 -1 -1 0 -0 1 1 1 1 2 2 2 2 2 2 2
-5 -5 -5 -5 -4 -4 -4 -5 -5 -5 -8 -8 -3 -2 -1 -1 -1 -2 -1 -1 -1 -2 -2 -2 -2 -2 -2 -2 -2 -2 -2 -1 -1 -1 0 1 1 1 2 2 2 2 2 1
-6 -5 -4 -4 -3 -3 -4 -5 -5 -5 -5 -7 -6 -3 -2 -2 -2 -2 -2 -2 -2 -2 -1 -2 -2 -3 -3 -3 -2 -2 -2 -2 -1 -1 -1 -0 -0 -0 0 1 1 0 0 -0
-5 -4 -4 -3 -4 -4 -4 -4 -4 -5 -4 -4 -4 -3 -1 -2 -2 -2 -2 -2 -2 -2 -2 -3 -2 -2 -2 -3 -2 -2 -1 -2 -1 -0 -0 -0 0 0 0 -0 -0 -1 -1 -1
-4 -4 -4 -4 -4 -4 -4 -3 -4 -5 -5 -4 -5 -2 -1 -2 -3 -2 -2 -2 -2 -1 -2 -2 -2 -2 -2 -2 -2 -2 -2 -1 -2 -1 0 -0 -0 -0 -0 -1 -2 -2 -1 -1
-4 -5 -4 -4 -2 -4 -4 -3 -3 -4 -5 -4 -3 -2 -0 -2 -3 -2 -2 -1 -1 -1 -1 -2 -1 -1 -2 -1 -1 -1 -1 -1 -2 -2 -2 -1 -0 -0 -2 -2 -3 -2 -2 -2
-4 -3 -4 -3 -2 -3 -3 -3 -4 -4 -3 -4 -0 -2 -0 -2 -1 -2 -2 -1 -1 -1 -1 -1 -1 -1 -1 -1 -1 -1 -1 -1 -1 -1 -1 -0 -1 -1 -2 -2 -2 -3 -3 -3
-4 -4 -4 -2 -2 -2 -2 -2 -2 -3 -3 -3 -2 -0 -0 -0 -0 -1 -1 -1 -1 -1 -1 -0 -0 -0 -0 -0 -0 -0 0 1 1 -0 -2 -2 -2 -2 -3 -3 -2 -3 -3 -3
-5 -5 -5 -4 -2 -2 -2 0 -0 -0 -0 -0 -1 1 0 1 -0 -1 -1 -0 -0 -0 -0 0 0 0 1 1 1 1 1 1 2 2 1 -0 -1 -2 -3 -3 -3 -3 -3 -3
-4 -5 -5 -5 -3 -4 0 1 0 0 1 1 1 2 1 1 0 0 -0 -0 0 0 0 0 0 0 0 1 1 1 1 2 2 3 3 1 1 1 -1 -1 -2 -3 -3 -3
-4 -5 -5 -5 -4 -1 1 1 1 0 2 1 2 2 1 1 1 1 1 1 0 1 1 0 1 1 1 1 1 1 1 1 2 2 2 1 1 1 0 1 1 0 -1 -2
-4 -5 -6 -5 -4 -5 1 0 0 -0 1 1 1 1 1 1 1 0 1 1 1 1 1 1 1 1 1 1 1 1 1 1 1 2 2 2 2 2 1 1 1 0 1 0
-4 -6 -6 -6 -6 -1 2 1 0 -0 1 1 1 1 1 1 1 1 1 1 1 1 1 1 1 1 1 1 1 1 1 1 1 1 1 1 1 1 1 2 2 1 1 1
-2 -3 -4 -6 -6 -2 2 1 1 1 1 1 1 1 2 2 2 2 2 2 2 2 2 2 1 1 1 1 2 2 1 1 1 1 1 1 1 1 1 1 1 1 1 0
-2 1 -0 -0 2 2 2 1 1 2 2 2 2 2 2 2 2 2 2 2 2 2 2 2 1 1 1 1 1 1 1 1 1 1 1 1 1 1 0 0 -0 -0 -0 -0
-0 -1 -1 -0 2 3 2 3 3 2 3 3 3 3 3 3 3 3 3 3 2 2 2 2 1 1 1 1 1 1 1 1 1 1 1 1 1 0 0 0 0 -0 -0 -0
-0 -0 1 2 4 3 4 4 4 4 4 4 4 4 4 3 3 3 3 3 3 2 2 2 2 1 1 1 1 1 1 1 1 1 1 1 1 1 0 0 0 -0 -0 -0
4 3 3 4 4 4 4 3 3 3 3 4 5 4 4 4 4 3 3 3 3 3 3 2 2 2 2 2 1 1 1 1 1 1 1 0 0 0 -0 -0 -0 -1 -1 -1
Height
3102 3105 3106 3108 3110 3111 3112 3113 3114 3115 3113 3111 3110 3104 3107 3108 3105 3105 3104 3102 3101 3100 3099 3097 3093 3089 3088 3089 3093 3095 3095 3096 3097 3099 3101 3104 3106 3108 3111 3115 3120 3122 3125 3129
3103 3104 3106 3107 3108 3110 3110 3112 3112 3113 3110 3108 3104 3097 3100 3099 3099 3097 3096 3096 3095 3090 3085 3084 3084 3084 3083 3083 3081 3080 3081 3083 3085 3085 3088 3090 3093 3096 3099 3103 3106 3110 3113 3118
3102 3104 3105 3106 3107 3108 3109 3111 3110 3110 3107 3105 3099 3092 3092 3094 3092 3092 3091 3090 3082 3079 3079 3079 3078 3077 3075 3073 3072 3070 3069 3069 3070 3074 3074 3076 3078 3081 3085 3090 3094 3098 3102 3106
3103 3104 3105 3106 3107 3107 3109 3109 3108 3107 3105 3103 3103 3092 3089 3088 3088 3087 3083 3081 3080 3077 3075 3073 3072 3070 3068 3065 3063 3060 3058 3057 3058 3059 3060 3062 3065 3068 3073 3078 3083 3087 3091 3094
3103 3103 3104 3105 3106 3107 3107 3106 3106 3104 3103 3101 3099 3097 3087 3084 3083 3082 3081 3079 3076 3072 3069 3065 3063 3060 3057 3053 3050 3048 3046 3045 3044 3044 3047 3049 3051 3056 3061 3064 3068 3074 3078 3082
3102 3103 3104 3104 3105 3106 3106 3106 3103 3101 3102 3102 3099 3099 3085 3083 3083 3082 3080 3078 3073 3069 3063 3058 3051 3045 3041 3037 3035 3034 3032 3032 3031 3031 3032 3035 3040 3043 3048 3052 3055 3060 3066 3071
3101 3102 3103 3104 3105 3105 3104 3103 3102 3106 3103 3102 3097 3095 3085 3084 3081 3080 3075 3070 3064 3055 3047 3040 3035 3030 3026 3024 3024 3023 3021 3021 3020 3019 3020 3023 3027 3031 3035 3041 3044 3048 3053 3057
3101 3104 3103 3104 3104 3104 3103 3104 3103 3111 3107 3100 3094 3089 3083 3082 3080 3078 3073 3063 3056 3046 3037 3031 3026 3021 3017 3016 3015 3013 3012 3011 3010 3009 3010 3012 3015 3020 3024 3029 3033 3037 3041 3046
3104 3104 3103 3103 3104 3105 3102 3101 3103 3104 3102 3100 3090 3086 3083 3081 3080 3075 3066 3059 3052 3043 3036 3029 3023 3016 3011 3007 3005 3004 3004 3004 3003 3002 3002 3005 3009 3013 3017 3022 3025 3028 3032 3036
3102 3103 3102 3103 3102 3101 3101 3102 3104 3104 3105 3103 3087 3083 3080 3078 3072 3068 3061 3056 3051 3045 3038 3032 3024 3015 3007 3000 2997 2996 2997 2997 2998 2998 2998 3000 3005 3008 3012 3015 3018 3021 3024 3028
3100 3100 3102 3101 3100 3100 3101 3101 3101 3102 3102 3101 3096 3081 3077 3075 3071 3065 3062 3057 3052 3046 3040 3033 3024 3013 3003 2997 2993 2992 2992 2993 2994 2995 2996 2998 3000 3002 3006 3009 3011 3013 3017 3020
3098 3098 3099 3101 3100 3099 3099 3100 3100 3100 3100 3098 3096 3081 3075 3074 3069 3065 3063 3058 3053 3047 3041 3034 3025 3016 3008 3000 2993 2990 2989 2989 2990 2992 2994 2997 2999 3001 3004 3006 3007 3008 3011 3013
3098 3099 3099 3098 3100 3098 3096 3096 3097 3097 3097 3093 3093 3077 3074 3073 3070 3065 3062 3058 3053 3047 3042 3036 3028 3021 3013 3004 2997 2992 2989 2988 2988 2989 2991 2993 2996 2999 3000 3000 3002 3004 3006 3009
3098 3096 3096 3095 3094 3095 3092 3092 3093 3093 3091 3086 3079 3074 3074 3073 3069 3065 3061 3057 3052 3047 3042 3037 3032 3025 3019 3012 3005 2999 2993 2988 2985 2986 2989 2992 2995 2996 2996 2997 2998 3000 3001 3003
3096 3094 3092 3091 3089 3089 3086 3085 3085 3084 3082 3082 3073 3072 3071 3069 3066 3064 3061 3057 3053 3048 3043 3039 3035 3028 3023 3018 3011 3004 2995 2987 2984 2985 2988 2991 2993 2993 2994 2995 2995 2996 2997 2998
3094 3092 3089 3084 3084 3083 3078 3078 3077 3076 3076 3074 3071 3067 3068 3066 3065 3062 3059 3056 3052 3049 3044 3040 3036 3031 3025 3019 3014 3006 2999 2993 2989 2988 2991 2992 2992 2993 2992 2993 2993 2993 2994 2994
3092 3090 3088 3080 3080 3076 3071 3067 3068 3070 3069 3069 3067 3065 3064 3062 3061 3060 3058 3054 3051 3048 3044 3040 3037 3033 3028 3022 3016 3011 3005 3001 2998 2997 2996 2995 2994 2992 2992 2991 2990 2989 2991 2990
3089 3089 3089 3080 3076 3073 3066 3065 3066 3065 3063 3062 3060 3060 3060 3059 3058 3057 3055 3053 3051 3048 3044 3041 3038 3034 3030 3025 3020 3016 3013 3010 3006 3003 3002 3000 2997 2996 2993 2991 2988 2986 2987 2986
3086 3087 3086 3082 3077 3068 3062 3062 3063 3061 3060 3058 3057 3057 3057 3056 3055 3055 3053 3051 3049 3047 3044 3042 3039 3035 3031 3027 3023 3020 3017 3015 3012 3010 3006 3004 3001 3000 2998 2996 2992 2989 2986 2984
3081 3082 3084 3081 3079 3070 3061 3061 3060 3059 3057 3056 3055 3053 3053 3053 3052 3052 3051 3050 3047 3045 3043 3041 3039 3036 3032 3029 3026 3023 3020 3018 3015 3013 3010 3007 3004 3002 3000 2997 2995 2994 2991 2988
3079 3078 3077 3078 3077 3062 3059 3059 3058 3059 3061 3055 3053 3051 3050 3050 3050 3049 3048 3047 3045 3043 3042 3040 3038 3036 3033 3030 3027 3025 3022 3019 3017 3014 3011 3008 3005 3003 3000 2998 2996 2994 2992 2990
3078 3075 3073 3073 3072 3061 3058 3057 3058 3057 3055 3053 3052 3050 3049 3048 3048 3048 3047 3045 3043 3042 3041 3039 3037 3035 3033 3030 3028 3026 3023 3020 3017 3014 3012 3010 3007 3004 3002 2999 2997 2995 2992 2991
3072 3070 3068 3066 3058 3056 3055 3054 3053 3051 3051 3050 3049 3048 3047 3046 3045 3045 3044 3043 3041 3040 3038 3037 3035 3033 3031 3028 3026 3024 3022 3020 3017 3015 3013 3010 3008 3005 3003 3001 2999 2997 2995 2993
3066 3065 3061 3059 3053 3052 3051 3050 3049 3047 3046 3045 3045 3044 3043 3043 3041 3041 3040 3039 3038 3036 3035 3033 3032 3030 3028 3026 3024 3023 3021 3019 3017 3015 3013 3011 3009 3006 3004 3001 2999 2997 2995 2993
3061 3059 3055 3049 3048 3047 3046 3045 3044 3044 3043 3043 3042 3041 3040 3038 3038 3037 3036 3035 3034 3033 3032 3031 3029 3028 3026 3024 3023 3021 3019 3017 3016 3014 3012 3009 3007 3004 3002 3000 2998 2995 2993 2991
3049 3048 3047 3043 3044 3042 3042 3040 3039 3038 3038 3037 3035 3035 3034 3033 3032 3031 3031 3031 3029 3028 3027 3026 3024 3023 3022 3021 3019 3018 3016 3014 3011 3009 3007 3004 3002 2999 2997 2995 2992 2990 2988 2986
Wind_Speed
13 12 11 8 7 7 7 8 11 11 17 23 25 31 28 24 28 28 27 28 30 31 30 32 36 40 42 44 40 39 40 39 43 46 48 49 48 48 48 50 51 51 50 48
11 7 5 4 4 4 6 8 11 13 18 22 28 34 29 28 23 20 18 19 23 27 32 34 36 39 41 40 41 43 43 41 41 44 46 50 51 52 51 49 50 53 54 53
9 6 6 6 6 7 8 9 11 14 19 22 28 33 18 16 22 22 20 18 24 29 30 31 33 34 36 38 38 43 45 47 46 43 45 47 51 54 56 54 51 51 52 54
6 6 5 5 6 7 7 8 10 15 18 9 18 10 20 5 13 9 13 20 24 29 33 36 39 41 42 43 45 47 49 49 49 47 46 46 48 51 53 55 54 51 50 51
5 5 5 5 5 4 6 8 11 15 14 18 8 9 6 8 6 12 19 25 30 35 38 42 44 49 50 52 54 53 51 50 48 48 46 46 45 45 46 51 56 56 53 52
4 3 2 2 3 6 7 9 9 8 7 3 3 3 8 9 11 18 23 29 35 40 45 50 53 54 52 51 50 45 42 41 41 44 44 44 43 40 41 44 49 53 55 54
4 3 2 2 5 5 3 5 2 2 2 4 4 7 11 15 18 25 29 35 43 50 47 41 35 33 31 31 30 33 35 35 35 37 39 40 41 40 38 38 41 44 49 53
3 2 2 1 2 3 4 2 3 3 1 5 15 8 5 14 18 21 34 42 37 32 32 30 26 24 24 25 26 29 31 30 29 30 33 36 37 37 37 36 36 38 39 41
3 1 1 1 4 2 2 2 1 3 6 5 6 8 14 15 17 27 23 20 19 25 24 21 22 24 25 29 32 31 28 27 23 23 24 26 29 31 33 33 33 35 36 35
3 4 2 3 3 3 2 1 2 4 2 4 7 9 9 19 29 24 17 12 17 21 24 25 29 30 26 20 21 23 23 19 16 17 17 18 19 20 23 26 28 31 33 35
3 2 1 3 1 4 3 4 3 2 4 3 4 7 13 21 32 24 16 13 17 17 21 25 31 29 30 24 18 14 17 15 12 12 13 15 16 16 16 18 19 22 26 31
2 1 2 2 4 5 7 5 6 4 2 5 6 11 8 23 34 20 15 14 13 18 19 24 29 22 23 24 20 11 9 14 11 11 12 12 12 14 13 13 14 16 17 20
0 1 2 2 7 10 13 9 14 14 14 14 4 9 16 24 26 13 13 15 16 18 19 22 27 22 28 28 26 20 8 6 7 12 13 14 12 11 15 17 16 16 17 18
5 6 9 10 5 5 14 15 12 16 11 12 24 30 12 22 16 13 17 16 16 18 21 20 21 22 22 23 24 23 20 13 5 6 12 7 5 8 10 10 11 14 16 18
5 8 9 13 15 18 23 25 24 26 28 21 28 30 19 11 7 17 16 15 15 17 17 18 20 20 22 25 26 28 33 24 4 3 3 4 7 13 14 12 12 14 14 14
9 9 14 23 11 7 18 20 23 26 29 33 30 26 11 12 12 13 14 12 13 14 15 17 19 19 21 23 26 31 37 39 23 23 10 5 10 11 9 8 11 15 16 16
10 9 12 10 8 21 18 2 5 12 15 15 24 12 15 13 13 13 13 13 12 12 13 15 16 17 20 24 28 31 34 36 35 29 26 24 23 18 5 4 10 13 13 16
16 13 10 16 15 3 3 6 10 16 14 15 17 12 14 15 13 13 14 13 9 9 10 13 16 18 20 22 25 26 27 27 27 26 22 23 25 25 24 18 10 13 21 20
17 15 9 6 11 21 6 1 4 9 10 10 12 11 12 14 14 11 12 11 8 7 8 10 13 15 17 19 21 22 23 22 22 20 19 18 18 19 19 19 21 19 14 11
9 10 13 3 4 4 2 5 10 12 5 2 6 7 10 10 11 7 9 7 6 5 7 9 11 12 14 15 16 17 17 17 18 17 16 16 16 16 17 17 17 14 16 18
11 13 21 20 10 14 7 6 7 3 2 10 9 7 6 6 6 6 6 6 5 5 6 7 9 10 11 13 14 15 15 15 14 14 14 14 14 14 14 14 15 15 15 15
6 5 8 11 10 9 2 5 4 8 14 12 10 8 6 6 6 7 7 7 6 5 6 6 7 8 10 10 11 12 13 13 14 15 15 14 14 13 12 11 11 10 11 12
10 10 7 10 9 14 19 19 17 16 15 15 13 12 9 9 9 9 8 8 8 8 8 7 7 7 8 9 10 10 10 10 11 11 12 13 13 13 12 11 11 10 9 8
17 16 21 22 3 12 14 15 15 16 14 13 15 14 14 13 14 12 11 11 11 11 11 11 10 10 10 10 11 11 11 11 12 12 11 11 11 12 12 11 11 10 11 11
27 29 30 31 17 18 18 14 12 13 15 15 15 16 16 17 16 17 16 16 16 15 15 14 14 14 14 14 14 15 15 15 15 15 15 15 15 15 15 15 15 14 14 14
25 17 20 19 18 21 20 20 21 22 21 20 20 19 18 18 17 20 18 18 20 19 19 17 18 18 18 18 18 18 18 17 18 18 18 17 16 15 15 15 15 15 14 14
Wind_Direction
167 174 173 184 201 214 230 247 259 265 272 284 292 289 293 295 286 292 288 282 282 279 278 275 268 265 268 269 271 266 260 256 252 251 249 248 247 245 244 244 244 245 244 246
163 161 171 186 203 224 238 253 268 273 276 286 291 289 298 298 300 295 289 282 284 277 266 264 264 265 270 277 275 274 268 260 255 254 249 247 246 245 245 242 242 243 244 244
167 165 196 220 229 233 238 252 271 290 286 294 301 301 290 311 300 294 294 297 267 264 266 270 271 272 270 269 271 272 273 273 264 256 256 250 245 244 243 242 242 243 244 244
155 167 188 197 212 226 246 263 288 299 309 308 315 289 307 310 311 301 255 271 277 276 275 278 280 277 275 273 277 278 279 278 275 269 259 254 251 247 244 243 242 241 243 246
157 178 193 208 240 276 263 290 298 297 300 307 293 281 352 330 284 296 291 288 289 288 286 284 284 286 284 282 280 280 279 277 272 268 265 259 252 250 245 244 242 239 239 241
136 157 168 257 286 284 290 298 297 300 307 291 346 270 293 334 318 294 290 288 286 285 284 285 284 283 279 278 279 277 276 273 269 264 259 257 254 252 249 245 244 241 240 240
137 147 190 243 282 310 352 336 331 328 343 231 339 274 278 297 303 310 310 306 304 302 300 297 298 292 274 271 272 279 278 271 266 261 256 251 250 248 248 245 243 242 241 241
95 103 161 246 278 307 339 30 101 220 341 281 289 243 304 302 299 304 306 307 309 314 311 307 306 305 282 270 271 280 278 268 267 265 260 250 244 243 244 243 243 241 239 240
162 139 109 316 313 302 299 54 111 284 282 281 248 276 289 283 300 315 321 334 354 7 4 352 339 322 300 282 277 279 283 272 270 269 261 253 244 239 242 244 244 242 240 238
121 126 211 296 296 267 252 208 175 219 352 303 292 284 266 314 335 341 351 354 356 1 6 3 354 346 335 318 292 273 272 274 271 268 249 231 237 242 245 248 247 244 240 239
72 109 249 354 328 318 246 236 194 260 239 213 311 283 312 331 333 334 341 1 5 12 8 358 358 354 353 340 310 296 276 274 264 259 247 235 230 233 241 244 242 241 238 237
56 116 275 256 287 275 263 256 260 228 213 257 253 276 327 330 326 322 330 350 8 6 3 8 9 14 8 16 17 348 317 269 256 240 237 236 239 243 246 249 246 242 241 242
310 196 313 255 253 259 255 269 247 244 260 256 232 266 310 333 331 335 352 1 359 2 7 13 17 18 32 31 29 28 355 324 275 238 226 230 239 251 251 248 248 250 249 248
283 236 233 234 247 260 261 278 268 236 240 254 258 293 319 314 316 360 349 351 358 354 1 7 17 21 34 41 41 42 34 18 331 255 240 232 254 259 271 275 264 255 246 244
262 278 271 277 281 281 277 273 264 253 259 255 282 288 313 313 354 334 327 331 349 347 355 3 15 13 22 29 30 32 30 29 104 135 174 213 250 265 277 283 268 258 250 250
276 276 297 291 295 276 276 271 265 263 266 267 278 290 306 295 316 326 314 328 344 345 350 7 11 12 16 27 33 35 36 44 71 90 119 188 239 258 279 268 269 273 263 266
265 286 312 287 303 302 286 313 248 262 270 280 265 307 301 312 315 310 309 321 333 343 355 9 15 23 24 30 33 37 39 42 48 57 59 57 52 54 34 318 244 258 255 256
261 269 279 289 321 267 216 270 288 288 287 271 279 296 294 299 305 305 303 305 328 347 3 8 11 17 20 27 30 36 42 42 44 53 56 56 54 50 46 32 358 264 265 269
252 253 263 272 300 286 264 134 319 314 311 288 280 273 275 292 299 302 303 309 322 1 14 11 9 14 20 23 25 26 33 37 39 44 56 53 43 48 47 39 40 37 25 349
227 231 232 273 284 261 253 296 310 313 300 317 298 271 274 286 289 297 284 289 304 350 5 4 3 9 18 24 25 22 25 29 29 27 37 46 45 40 38 40 37 37 41 48
227 234 235 241 257 275 280 288 311 288 315 324 326 303 283 276 268 266 262 272 299 338 344 349 356 3 9 15 15 16 15 16 18 20 21 26 28 27 29 28 24 22 27 25
253 244 223 208 225 270 257 302 269 297 304 308 308 306 300 283 267 266 268 277 292 304 314 329 339 346 354 2 3 1 2 0 359 2 3 5 8 11 10 11 12 10 10 13
245 237 246 236 268 280 289 288 282 285 288 285 280 274 262 259 257 254 260 267 276 282 290 298 305 314 322 332 338 340 343 344 347 348 348 349 349 349 349 351 350 350 348 341
265 263 256 283 277 298 290 290 288 286 296 284 273 263 264 261 261 262 264 267 269 270 273 278 283 288 296 305 310 315 321 327 330 331 333 334 335 334 333 333 332 332 333 333
274 275 280 283 291 279 279 282 287 273 289 296 289 283 277 273 273 272 269 269 269 271 274 278 283 287 291 297 303 309 312 315 317 320 322 325 327 329 329 328 327 327 327 327
285 289 272 291 289 286 282 278 277 275 281 282 280 274 277 276 271 268 273 273 277 279 281 284 284 286 290 294 295 298 299 302 305 308 310 311 312 313 314 313 313 312 310 307